Regional Weather Roundup
Issued by NWS

Home | Current Version | Previous Version | Graphics & Text | Print | Product List | Glossary On
Versions: 1 2 3 4 5 6 7 8 9 10 11 12 13 14 15 16 17 18 19 20 21 22 23 24 25 26 27 28 29 30 31 32 33 34 35 36 37 38 39 40 41 42 43 44 45 46 47 48 49 50
000
ASUS43 KDTX 172101
RWRMI
MICHIGAN HOURLY REGIONAL WEATHER ROUNDUP
NATIONAL WEATHER SERVICE DETROIT/PONTIAC MI
400 PM EST WED JAN 17 2018

NOTE: "FAIR" INDICATES FEW OR NO CLOUDS BELOW 12,000 FEET WITH NO
SIGNIFICANT WEATHER AND/OR OBSTRUCTION TO VISIBILITY.

MIZ047>049-052>055-059>063-066>070-074>076-081>083-172200-
SOUTHEAST LOWER MICHIGAN

CITY           SKY/WX    TMP DP  RH WIND       PRES   REMARKS
ADRIAN         PTSUNNY   20  12  71 SW12      30.36F WCI   8
ALMA           FAIR      27  14  57 SW13G20   30.24F WCI  17
ANN ARBOR      FAIR      24  14  65 SW20      30.31F WCI  10
BAD AXE        FAIR      23  15  69 SW15G23   30.19F WCI  10
CARO           FAIR      26  16  67 SW14      30.21F WCI  14
DETROIT CITY   FAIR      24  14  65 SW14      30.31F WCI  12
DETROIT        FAIR      23  13  65 SW16      30.34F WCI  10
FLINT          FAIR      26  12  55 W15       30.27F WCI  14
GROSSE ILE     FAIR      22  14  69 SW13      30.34S WCI  10
HILLSDALE      PTSUNNY   25  14  63 SW13      30.31S WCI  13
HOWELL         FAIR      26  15  63 W13G23    30.27F WCI  15

CITY           SKY/WX    TMP DP  RH WIND       PRES   REMARKS
JACKSON        FAIR      25  14  63 SW15      30.30F WCI  13
LAMBERTVILLE   FAIR      20  12  69 SW13G18   30.38S WCI   8
LANSING        FAIR      26  12  55 W24G33    30.29F WCI  11
LAPEER         FAIR      26  15  62 W13G23    30.24F WCI  15
MASON          FAIR      28  10  48 W14G22    30.29S WCI  16
MONROE         FAIR      20  11  68 SW14      30.35F WCI   7
MT. CLEMENS    MOSUNNY   29  10  45 SW12      30.29S WCI  19
PONTIAC        FAIR      24  14  65 SW15G23   30.26F WCI  11
PORT HOPE        N/A     24  14  65 SW15G24   30.15F WCI  11
PORT HURON     FAIR      23  12  63 S7        30.27F WCI  15
TRI CITIES     FAIR      26  16  65 W23G30    30.22F WCI  11
MIDLAND        FAIR      28  13  52 SW18G29   30.19F WCI  15
TROY           FAIR      28  13  54 SW16G22   30.31S WCI  16
SAGINAW HB     FAIR      28  16  59 SW22G28   30.22F WCI  15
$$
MIZ043>046-050>051-056>058-064>065-071>073-077>080-172200-
SOUTHWEST LOWER MICHIGAN

CITY           SKY/WX    TMP DP  RH WIND       PRES   REMARKS
BATTLE CREEK   FAIR      25  13  60 W18G25    30.32F WCI  11
BENTON HARBOR  FAIR      24  15  68 W18G30    30.38F WCI  10
BIG RAPIDS     FAIR      24  10  56 SW16G22   30.19F WCI  11
COLDWATER      FAIR      24  15  69 W15       30.34F WCI  11
FREMONT        FAIR      25  10  53 SW14G20   30.25F WCI  13
HOLLAND        FAIR      26  15  63 W18G37    30.33F WCI  13
GRAND RAPIDS   PTSUNNY   26  15  63 W24G32    30.29F WCI  11
IONIA          FAIR      27  15  61 W22G29    30.27S WCI  12
KALAMAZOO      FAIR      25  13  60 W16G23    30.34F WCI  12
LUDINGTON      FAIR      26  16  67 SW17G28   30.20F HAZE    WCI  12
MARSHALL       FAIR      25  11  56 W16       30.31F WCI  12
MOUNT PLEASANT FAIR      28  11  49 W15G23    30.20F WCI  16
MUSKEGON       PTSUNNY   26  14  60 SW16G30   30.29F WCI  14
SOUTH HAVEN    FAIR      27  16  64 W16G24    30.35F WCI  14
$$
MIZ016>042-172200-
NORTHERN LOWER MICHIGAN

CITY           SKY/WX    TMP DP  RH WIND       PRES   REMARKS
ALPENA         FAIR      25  12  58 SW12G20   30.03F WCI  14
BEAVER ISLAND  FAIR      26  17  68 SW24G40   29.99F HAZE    WCI  10
BELLAIRE       FAIR      25  14  63 SW12G18   30.09F WCI  14
CADILLAC       FAIR      21  12  67 SW23G29   30.10F WCI   5
CHARLEVOIX     FAIR      27  14  58 SW17G24   30.07F WCI  14
FRANKFORT      FAIR      28  16  58 SW14G24   30.13F HAZE    WCI  17
GAYLORD        FAIR      21  12  68 SW17G26   30.01F WCI   7
GRAYLING       FAIR      23   8  52 SW14G20   30.07F WCI  11
HARBOR SPRINGS FAIR      26  14  60 SW16G26   30.02F WCI  13
HOUGHTON LAKE  FAIR      23  10  57 SW17G29   30.10F WCI   9
MANISTEE       FAIR      26  14  60 SW16G23   30.17F WCI  14
OSCODA         FAIR      25  11  56 SW20      30.10F WCI  11
PELLSTON       FAIR      26  13  57 SW18G31   30.00F WCI  13
ROGERS CITY    FAIR      25  12  59 SW21G26   30.00F WCI  10
TRAVERSE CITY  PTSUNNY   26  12  55 SW15G22   30.09F WCI  14
$$
MIZ007>008-015-172200-
EASTERN UPPER MICHIGAN

CITY           SKY/WX    TMP DP  RH WIND       PRES   REMARKS
KINROSS        FAIR      24  15  68 SW18G29   29.93F WCI  10
MACKINAC ISLAN FAIR      26  19  75 SW23G38   29.97F HAZE    WCI  11
NEWBERRY       FAIR      19  11  74 SW20G25   29.91F WCI   2
S. S. MARIE    FAIR      25  13  60 SW14G25   29.92F WCI  13
MUNISING         N/A     28  12  51 S8        29.89F WCI  20
$$
MIZ004>006-011>014-085-172200-
CENTRAL UPPER MICHIGAN

CITY           SKY/WX    TMP DP  RH WIND       PRES   REMARKS
MANISTIQUE     FAIR      21  10  62 SW16G23   29.96F WCI   7
ESCANABA       FAIR      24   9  52 SW14G21   29.98F WCI  12
MENOMINEE      FAIR      23   7  50 SW9G20    30.05F WCI  13
SAWYER-GWINN   SUNNY     28  10  47 SW22G30   29.86F WCI  15
$$
MIZ001>003-009>011-084-172200-
WESTERN UPPER MICHIGAN

CITY           SKY/WX    TMP DP  RH WIND       PRES   REMARKS
IRON MOUNTAIN  FAIR      30   4  33 W9        29.92F WCI  22
HOUGHTON       MIX PCPN  31  12  45 W23G43    29.77F WCI  18
COPPER HARBOR    N/A     32  10  40 W10G20    29.76F WCI  24
IRONWOOD       FAIR      29   8  41 SW18G28   29.88F WCI  16
$$

ABBREVIATIONS USED IN REMARKS
   TC - TEMPERATURE IN CELSIUS
  WCI - WIND CHILL INDEX
   HX - HEAT INDEX
  VSB - VISIBILITY





USA.gov is the U.S. government's official web portal to all federal, state and local government web resources and services.